Port Huron, MI

10:27 PM EDT on October 17, 2019 (GMT -0400)
Saint Clair County International

Weather History for KPHN - June, 2019

Change the Weather History Date:

Wednesday, June 5, 2019

  Actual Average (KMTC) Record (KMTC)
Temperature  
Mean Temperature 68 °F -  
Max Temperature 78 °F 73 °F 90 °F (1953)
Min Temperature 59 °F 52 °F 41 °F (1964)
Cooling Degree Days 4    
Growing Degree Days 18 (Base 50)    
Moisture  
Dew Point 59 °F    
Average Humidity 76    
Maximum Humidity 88    
Minimum Humidity 54    
Precipitation  
Precipitation 0.00 in - - ()
Sea Level Pressure  
Sea Level Pressure 29.73 in    
Wind  
Wind Speed 4 mph (SW)    
Max Wind Speed 12 mph    
Max Gust Speed 29 mph    
Visibility 8 miles    
Events Rain    
Averages and records for this station are not official NWS values.
T = Trace of Precipitation, MM = Missing Value Source: NWS Daily Summary

Daily Weather History Graph

Daily Weather History Graph

Search for Another Location

Airport or City:

Astronomy

Jun. 05, 2019 Rise Set
Actual Time 5:52 AM EDT 9:05 PM EDT
Civil Twilight 5:17 AM EDT 9:39 PM EDT
Nautical Twilight 4:33 AM EDT 10:24 PM EDT
Astronomical Twilight 3:39 AM EDT 11:19 PM EDT
Moon 7:56 AM EDT (6/5) 11:30 PM EDT (6/5)
Length of Visible Light 16h 22m
Length of Day
15h 12m
Waxing Crescent, 6% of the Moon is Illuminated
Jun 5
Waxing Crescent
Jun 10
First Quarter
Jun 17
Full
Jun 25
Last Quarter
Jul 2
New

Hourly Weather History & Observations

Time (EDT) Temp. Dew Point Humidity Pressure Visibility Wind Dir Wind Speed Gust Speed Precip Events Conditions
12:16 AM 66.2 °F 55.4 °F 68% 29.82 in 10.0 mi SSW 3.5 mph - N/A   Overcast
12:35 AM 66.2 °F 55.4 °F 68% 29.82 in 10.0 mi SSW 3.5 mph - N/A   Mostly Cloudy
12:55 AM 64.4 °F 55.4 °F 73% 29.81 in 10.0 mi Calm Calm - N/A   Mostly Cloudy
12:56 AM 64.4 °F 55.4 °F 73% 29.81 in 10.0 mi Calm Calm - N/A   Mostly Cloudy
1:19 AM 64.4 °F 55.4 °F 73% 29.81 in 10.0 mi SSW 3.5 mph - N/A   Mostly Cloudy
1:37 AM 64.4 °F 55.4 °F 73% 29.80 in 10.0 mi SSW 3.5 mph - N/A   Overcast
1:55 AM 66.2 °F 55.4 °F 68% 29.80 in 10.0 mi SSW 4.6 mph - N/A   Overcast
1:56 AM 66.2 °F 55.4 °F 68% 29.80 in 10.0 mi SSW 5.8 mph - N/A   Overcast
2:15 AM 66.2 °F 55.4 °F 68% 29.80 in 10.0 mi SSW 4.6 mph - N/A   Overcast
2:16 AM 66.2 °F 55.4 °F 68% 29.80 in 10.0 mi SSW 5.8 mph - N/A   Overcast
2:35 AM 68.0 °F 55.4 °F 64% 29.79 in 10.0 mi SSW 5.8 mph - N/A   Overcast
2:58 AM 68.0 °F 55.4 °F 64% 29.79 in 10.0 mi SSW 6.9 mph - N/A   Overcast
3:16 AM 68.0 °F 55.4 °F 64% 29.78 in 10.0 mi SSW 6.9 mph - N/A   Overcast
3:35 AM 68.0 °F 55.4 °F 64% 29.78 in 10.0 mi SSW 6.9 mph - N/A   Overcast
3:36 AM 68.0 °F 55.4 °F 64% 29.77 in 10.0 mi SSW 6.9 mph - N/A   Overcast
3:55 AM 68.0 °F 55.4 °F 64% 29.77 in 10.0 mi SSW 6.9 mph - N/A   Overcast
4:19 AM 68.0 °F 55.4 °F 64% 29.76 in 10.0 mi South 6.9 mph - N/A   Overcast
4:37 AM 68.0 °F 55.4 °F 64% 29.76 in 10.0 mi SSW 5.8 mph - N/A   Overcast
4:55 AM 68.0 °F 55.4 °F 64% 29.76 in 10.0 mi SSW 4.6 mph - N/A   Overcast
4:56 AM 68.0 °F 55.4 °F 64% 29.76 in 10.0 mi SSW 4.6 mph - N/A   Overcast
5:15 AM 66.2 °F 55.4 °F 68% 29.75 in 10.0 mi SSW 4.6 mph - N/A   Overcast
5:35 AM 66.2 °F 55.4 °F 68% 29.76 in 10.0 mi SSW 5.8 mph - N/A   Overcast
5:58 AM 66.2 °F 55.4 °F 68% 29.75 in 10.0 mi South 5.8 mph - N/A   Overcast
6:16 AM 66.2 °F 55.4 °F 68% 29.75 in 10.0 mi South 4.6 mph - N/A   Overcast
6:35 AM 66.2 °F 55.4 °F 68% 29.74 in 10.0 mi South 4.6 mph - N/A   Overcast
6:55 AM 66.2 °F 57.2 °F 73% 29.74 in 10.0 mi SSW 3.5 mph - N/A   Mostly Cloudy
7:19 AM 66.2 °F 57.2 °F 73% 29.74 in 10.0 mi South 6.9 mph - N/A   Mostly Cloudy
7:37 AM 66.2 °F 57.2 °F 73% 29.74 in 10.0 mi SSW 6.9 mph - N/A   Mostly Cloudy
7:56 AM 66.2 °F 57.2 °F 73% 29.75 in 10.0 mi SW 6.9 mph - N/A   Overcast
8:15 AM 66.2 °F 57.2 °F 73% 29.77 in 5.0 mi WSW 8.1 mph 28.8 mph N/A Rain Heavy Rain
8:35 AM 64.4 °F 59.0 °F 83% 29.75 in 5.0 mi WSW 4.6 mph - N/A Rain Rain
8:40 AM 64.4 °F 60.8 °F 88% 29.75 in 4.0 mi WSW 3.5 mph - N/A Rain Heavy Rain
8:58 AM 64.4 °F 60.8 °F 88% 29.74 in 5.0 mi Calm Calm - N/A Rain Rain
9:15 AM 64.4 °F 60.8 °F 88% 29.72 in 7.0 mi Calm Calm - N/A Rain Light Rain
9:35 AM 66.2 °F 60.8 °F 83% 29.69 in 10.0 mi Calm Calm - N/A   Light Drizzle
9:55 AM 68.0 °F 62.6 °F 83% 29.67 in 10.0 mi Calm Calm - N/A   Scattered Clouds
9:56 AM 68.0 °F 62.6 °F 83% 29.67 in 10.0 mi Calm Calm - N/A   Scattered Clouds
10:19 AM 68.0 °F 62.6 °F 83% 29.68 in 10.0 mi Calm Calm - N/A   Scattered Clouds
10:37 AM 69.8 °F 64.4 °F 83% 29.69 in 10.0 mi Calm Calm - N/A   Mostly Cloudy
10:55 AM 69.8 °F 62.6 °F 78% 29.70 in 10.0 mi WSW 3.5 mph - N/A   Mostly Cloudy
11:15 AM 71.6 °F 64.4 °F 78% 29.70 in 10.0 mi Calm Calm - N/A   Overcast
11:16 AM 71.6 °F 62.6 °F 73% 29.70 in 10.0 mi Calm Calm - N/A   Overcast
11:35 AM 71.6 °F 64.4 °F 78% 29.71 in 10.0 mi SSW 5.8 mph - N/A   Overcast
11:40 AM 71.6 °F 64.4 °F 78% 29.71 in 10.0 mi South 5.8 mph - N/A   Overcast
11:58 AM 71.6 °F 64.4 °F 78% 29.71 in 10.0 mi South 5.8 mph - N/A   Overcast
12:16 PM 73.4 °F 64.4 °F 73% 29.71 in 10.0 mi SSW 9.2 mph - N/A   Overcast
12:35 PM 71.6 °F 62.6 °F 73% 29.71 in 10.0 mi SSW 10.4 mph - N/A   Overcast
12:36 PM 71.6 °F 62.6 °F 73% 29.71 in 10.0 mi SSW 10.4 mph - N/A   Overcast
12:55 PM 69.8 °F 62.6 °F 78% 29.71 in 10.0 mi SSW 8.1 mph - N/A   Overcast
1:19 PM 69.8 °F 62.6 °F 78% 29.71 in 10.0 mi SSW 9.2 mph - N/A   Overcast
1:37 PM 68.0 °F 62.6 °F 83% 29.71 in 5.0 mi SSW 5.8 mph - N/A Rain Rain
1:55 PM 68.0 °F 62.6 °F 83% 29.71 in 7.0 mi South 4.6 mph - N/A Rain Light Rain
1:56 PM 68.0 °F 62.6 °F 83% 29.70 in 7.0 mi South 4.6 mph - N/A   Light Drizzle
2:15 PM 69.8 °F 64.4 °F 83% 29.70 in 7.0 mi SSW 3.5 mph - N/A Rain Light Rain
2:35 PM 69.8 °F 64.4 °F 83% 29.70 in 10.0 mi SW 3.5 mph - N/A   Overcast
2:58 PM 71.6 °F 66.2 °F 83% 29.69 in 10.0 mi Calm Calm - N/A   Overcast
3:16 PM 71.6 °F 66.2 °F 83% 29.69 in 10.0 mi Calm Calm - N/A   Overcast
3:35 PM 73.4 °F 66.2 °F 78% 29.68 in 10.0 mi SW 3.5 mph - N/A   Overcast
3:36 PM 73.4 °F 66.2 °F 78% 29.68 in 10.0 mi SSW 3.5 mph - N/A   Overcast
3:55 PM 75.2 °F 66.2 °F 73% 29.67 in 10.0 mi WSW 3.5 mph - N/A   Mostly Cloudy
3:56 PM 75.2 °F 66.2 °F 73% 29.67 in 10.0 mi WSW 3.5 mph - N/A   Mostly Cloudy
4:19 PM 77.0 °F 64.4 °F 65% 29.67 in 10.0 mi West 5.8 mph - N/A   Scattered Clouds
4:37 PM 78.8 °F 62.6 °F 57% 29.67 in 10.0 mi WSW 5.8 mph - N/A   Scattered Clouds
4:55 PM 78.8 °F 60.8 °F 54% 29.67 in 10.0 mi WSW 5.8 mph - N/A   Scattered Clouds
5:15 PM 77.0 °F 62.6 °F 61% 29.67 in 10.0 mi WNW 6.9 mph - N/A   Mostly Cloudy
5:16 PM 77.0 °F 62.6 °F 61% 29.67 in 10.0 mi WNW 6.9 mph - N/A   Mostly Cloudy
5:35 PM 78.8 °F 62.6 °F 57% 29.67 in 10.0 mi NW 4.6 mph - N/A   Mostly Cloudy
5:40 PM 77.0 °F 62.6 °F 61% 29.67 in 10.0 mi NW 6.9 mph - N/A   Mostly Cloudy
5:57 PM 77.0 °F 62.6 °F 61% 29.66 in 10.0 mi Calm Calm - N/A   Mostly Cloudy
6:16 PM 77.0 °F 62.6 °F 61% 29.67 in 10.0 mi WNW 3.5 mph - N/A   Overcast
6:35 PM 66.2 °F 59.0 °F 78% 29.69 in 7.0 mi NNE 11.5 mph 21.9 mph N/A   Overcast
6:36 PM 66.2 °F 59.0 °F 78% 29.69 in 7.0 mi NNE 9.2 mph 21.9 mph N/A   Overcast
6:55 PM 64.4 °F 59.0 °F 83% 29.70 in 2.0 mi North 4.6 mph - N/A Rain Heavy Rain
7:19 PM 64.4 °F 60.8 °F 88% 29.71 in 5.0 mi NNE 6.9 mph - N/A   Overcast
7:36 PM 64.4 °F 59.0 °F 83% 29.72 in 4.0 mi North 6.9 mph - N/A Rain Rain
7:55 PM 64.4 °F 60.8 °F 88% 29.72 in 4.0 mi North 6.9 mph - N/A Rain Light Rain
7:56 PM 64.4 °F 60.8 °F 88% 29.72 in 4.0 mi North 5.8 mph - N/A Rain Light Rain
8:15 PM 62.6 °F 59.0 °F 88% 29.73 in 3.0 mi North 8.1 mph - N/A   Overcast
8:16 PM 62.6 °F 59.0 °F 88% 29.74 in 3.0 mi North 9.2 mph - N/A   Overcast
8:35 PM 60.8 °F 57.2 °F 88% 29.74 in 4.0 mi North 6.9 mph - N/A   Overcast
8:58 PM 60.8 °F 57.2 °F 88% 29.75 in 3.0 mi North 5.8 mph - N/A   Overcast
9:16 PM 60.8 °F 57.2 °F 88% 29.75 in 4.0 mi NNE 4.6 mph - N/A   Overcast
9:35 PM 59.0 °F 55.4 °F 88% 29.76 in 3.0 mi NE 5.8 mph - N/A   Overcast
9:36 PM 59.0 °F 55.4 °F 88% 29.76 in 3.0 mi NE 5.8 mph - N/A   Overcast
9:55 PM 59.0 °F 55.4 °F 88% 29.77 in 3.0 mi North 3.5 mph - N/A   Overcast
10:19 PM 59.0 °F 55.4 °F 88% 29.77 in 2.5 mi North 3.5 mph - N/A   Overcast
10:37 PM 59.0 °F 55.4 °F 88% 29.78 in 2.0 mi North 4.6 mph - N/A   Overcast
10:55 PM 59.0 °F 55.4 °F 88% 29.78 in 1.5 mi North 4.6 mph - N/A   Overcast
10:56 PM 59.0 °F 55.4 °F 88% 29.78 in 1.5 mi North 4.6 mph - N/A   Overcast
11:15 PM 59.0 °F 55.4 °F 88% 29.79 in 1.5 mi North 4.6 mph - N/A   Overcast
11:35 PM 59.0 °F 55.4 °F 88% 29.80 in 2.0 mi NNW 4.6 mph - N/A   Overcast
11:58 PM 59.0 °F 55.4 °F 88% 29.81 in 2.0 mi NNW 6.9 mph - N/A   Overcast